SRC3699 SKAR-SKBO

Flight info

Callsign SRC3699
Flight time 0h 30m
Altitude 19000
Route AXM1G AXM DCT TOLIM TOLIM4E
Aircraft C750/M-SBDE3FGHRWXY/S

Departure

Time 2026-05-05 03:10
Airport El Eden Airport (SKAR)

Arrival

Time 2026-05-05 03:40
Airport El Dorado International Airport (SKBO)
Time Latitude Longitude Altitude Speed Heading
2026-05-05 02:52 4.45226 -75.76766 3997 ft 0 kts 283°
2026-05-05 02:58 4.45223 -75.76753 3997 ft 2 kts 275°
2026-05-05 02:58 4.45223 -75.76737 3997 ft 2 kts 266°
2026-05-05 02:58 4.45226 -75.76723 3998 ft 2 kts 257°
2026-05-05 02:59 4.45230 -75.76708 3998 ft 2 kts 249°
2026-05-05 02:59 4.45231 -75.76704 3998 ft 0 kts 248°
2026-05-05 03:01 4.45241 -75.76694 3998 ft 2 kts 208°
2026-05-05 03:01 4.45255 -75.76691 3998 ft 2 kts 172°
2026-05-05 03:01 4.45270 -75.76693 3998 ft 2 kts 174°
2026-05-05 03:01 4.45285 -75.76695 3998 ft 2 kts 176°
2026-05-05 03:02 4.45300 -75.76694 3998 ft 2 kts 189°
2026-05-05 03:02 4.45309 -75.76692 3998 ft 0 kts 195°
2026-05-05 03:04 4.45305 -75.76693 3998 ft 1 kts 195°
2026-05-05 03:04 4.45277 -75.76701 3998 ft 6 kts 194°
2026-05-05 03:04 4.45224 -75.76686 3998 ft 10 kts 122°
2026-05-05 03:05 4.45160 -75.76634 3998 ft 14 kts 195°
2026-05-05 03:05 4.45044 -75.76665 3996 ft 20 kts 193°
2026-05-05 03:05 4.44884 -75.76702 3993 ft 25 kts 193°
2026-05-05 03:05 4.44702 -75.76746 3986 ft 27 kts 195°
2026-05-05 03:06 4.44509 -75.76793 3980 ft 29 kts 193°
2026-05-05 03:06 4.44344 -75.76833 3975 ft 16 kts 193°
2026-05-05 03:06 4.44241 -75.76868 3969 ft 10 kts 188°
2026-05-05 03:06 4.44157 -75.76878 3964 ft 9 kts 126°
2026-05-05 03:07 4.44167 -75.76868 3965 ft 1 kts 334°
2026-05-05 03:07 4.44169 -75.76869 3965 ft 0 kts 339°
2026-05-05 03:07 4.44182 -75.76870 3966 ft 0 kts 11°
2026-05-05 03:09 4.44276 -75.76849 3971 ft 45 kts 13°
2026-05-05 03:09 4.44812 -75.76720 3990 ft 106 kts 14°
2026-05-05 03:09 4.45686 -75.76512 3997 ft 150 kts 13°
2026-05-05 03:10 4.46773 -75.76299 4255 ft 161 kts 10°
2026-05-05 03:10 4.47946 -75.76088 4659 ft 180 kts 11°
2026-05-05 03:10 4.49196 -75.75848 5082 ft 187 kts 11°
2026-05-05 03:10 4.50503 -75.75982 5471 ft 197 kts 331°
2026-05-05 03:11 4.51356 -75.77039 5902 ft 202 kts 284°
2026-05-05 03:11 4.51212 -75.78405 6337 ft 203 kts 244°
2026-05-05 03:11 4.50655 -75.79708 6756 ft 208 kts 249°
2026-05-05 03:11 4.50176 -75.81090 7154 ft 213 kts 250°
2026-05-05 03:12 4.49709 -75.82512 7542 ft 218 kts 251°
2026-05-05 03:12 4.49240 -75.83977 7939 ft 222 kts 252°
2026-05-05 03:12 4.48770 -75.85459 8327 ft 225 kts 252°
2026-05-05 03:12 4.48298 -75.86963 8695 ft 228 kts 252°
2026-05-05 03:13 4.47824 -75.88496 9056 ft 231 kts 252°
2026-05-05 03:13 4.47346 -75.90029 9420 ft 233 kts 253°
2026-05-05 03:13 4.47241 -75.91636 9762 ft 234 kts 280°
2026-05-05 03:13 4.47229 -75.93247 10109 ft 235 kts 253°
2026-05-05 03:14 4.46621 -75.94766 10518 ft 235 kts 248°
2026-05-05 03:14 4.46172 -75.96343 10869 ft 236 kts 265°
2026-05-05 03:14 4.46112 -75.97987 11225 ft 236 kts 263°
2026-05-05 03:14 4.45699 -75.99552 11608 ft 236 kts 251°
2026-05-05 03:15 4.45279 -76.01137 11960 ft 236 kts 263°
2026-05-05 03:15 4.45263 -76.02783 12339 ft 236 kts 279°
2026-05-05 03:15 4.45955 -76.04217 12699 ft 232 kts 316°
2026-05-05 03:15 4.47360 -76.04966 13060 ft 231 kts 353°
2026-05-05 03:16 4.48934 -76.04760 13439 ft 234 kts 28°
2026-05-05 03:16 4.50094 -76.03624 13855 ft 236 kts 66°
2026-05-05 03:16 4.50311 -76.02017 14282 ft 240 kts 94°
2026-05-05 03:16 4.50117 -76.00326 14669 ft 247 kts 97°
2026-05-05 03:17 4.49858 -75.98628 15060 ft 253 kts 98°
2026-05-05 03:17 4.49558 -75.96860 15455 ft 261 kts 99°
2026-05-05 03:17 4.49245 -75.95060 16006 ft 264 kts 99°
2026-05-05 03:17 4.48926 -75.93248 16545 ft 266 kts 99°
2026-05-05 03:18 4.48607 -75.91428 17103 ft 268 kts 99°
2026-05-05 03:18 4.48287 -75.89599 17643 ft 269 kts 98°
2026-05-05 03:18 4.47961 -75.87743 18191 ft 270 kts 98°
2026-05-05 03:18 4.47639 -75.85903 18729 ft 271 kts 98°
2026-05-05 03:19 4.46958 -75.82009 19018 ft 303 kts 99°
2026-05-05 03:19 4.46577 -75.79845 19039 ft 322 kts 99°
2026-05-05 03:19 4.46184 -75.77606 19192 ft 334 kts 99°
2026-05-05 03:20 4.45632 -75.75294 19204 ft 350 kts 107°
2026-05-05 03:20 4.44855 -75.72908 19210 ft 365 kts 105°
2026-05-05 03:20 4.44089 -75.70454 19222 ft 377 kts 106°
2026-05-05 03:20 4.43294 -75.67909 19250 ft 388 kts 106°
2026-05-05 03:21 4.42475 -75.65301 19277 ft 398 kts 106°
2026-05-05 03:21 4.41640 -75.62627 19315 ft 407 kts 106°
2026-05-05 03:21 4.40777 -75.59873 19337 ft 414 kts 106°
2026-05-05 03:21 4.39904 -75.57086 19369 ft 421 kts 106°
2026-05-05 03:22 4.39027 -75.54284 19410 ft 427 kts 106°
2026-05-05 03:22 4.38252 -75.51389 19435 ft 432 kts 97°
2026-05-05 03:22 4.38453 -75.48419 19463 ft 434 kts 76°
2026-05-05 03:22 4.39689 -75.45660 19443 ft 439 kts 57°
2026-05-05 03:23 4.41298 -75.43059 19436 ft 442 kts 64°
2026-05-05 03:23 4.42742 -75.40327 19374 ft 443 kts 60°
2026-05-05 03:23 4.44290 -75.37666 19331 ft 436 kts 62°
2026-05-05 03:23 4.45732 -75.35017 19326 ft 429 kts 62°
2026-05-05 03:24 4.47179 -75.32436 19315 ft 423 kts 63°
2026-05-05 03:24 4.48426 -75.29808 19306 ft 418 kts 64°
2026-05-05 03:24 4.49722 -75.27199 19292 ft 414 kts 65°
2026-05-05 03:24 4.50971 -75.24617 19261 ft 411 kts 64°
2026-05-05 03:25 4.52215 -75.22059 19246 ft 408 kts 65°
2026-05-05 03:25 4.53465 -75.19488 19235 ft 401 kts 65°
2026-05-05 03:25 4.54664 -75.17023 19228 ft 394 kts 65°
2026-05-05 03:25 4.55859 -75.14566 19208 ft 387 kts 65°
2026-05-05 03:26 4.57034 -75.12149 19191 ft 382 kts 65°
2026-05-05 03:26 4.58179 -75.09791 19181 ft 377 kts 65°
2026-05-05 03:26 4.59329 -75.07429 19171 ft 373 kts 65°
2026-05-05 03:26 4.60462 -75.05095 19154 ft 369 kts 65°
2026-05-05 03:27 4.61576 -75.02802 19121 ft 367 kts 65°
2026-05-05 03:27 4.62695 -75.00498 19105 ft 364 kts 65°
2026-05-05 03:27 4.63795 -74.98237 19104 ft 361 kts 65°
2026-05-05 03:27 4.64887 -74.95982 19106 ft 359 kts 65°
2026-05-05 03:28 4.65978 -74.93737 19086 ft 354 kts 65°
2026-05-05 03:28 4.67063 -74.91503 18858 ft 358 kts 65°
2026-05-05 03:28 4.68154 -74.89256 18558 ft 362 kts 65°
2026-05-05 03:28 4.69271 -74.86955 18266 ft 366 kts 65°
2026-05-05 03:29 4.70385 -74.84664 17969 ft 369 kts 65°
2026-05-05 03:29 4.71513 -74.82338 17678 ft 372 kts 65°
2026-05-05 03:29 4.72638 -74.80022 17395 ft 374 kts 65°
2026-05-05 03:29 4.73786 -74.77657 17080 ft 376 kts 65°
2026-05-05 03:30 4.74931 -74.75297 16746 ft 374 kts 65°
2026-05-05 03:30 4.76020 -74.73055 16406 ft 348 kts 65°
2026-05-05 03:30 4.77051 -74.70931 16075 ft 327 kts 65°
2026-05-05 03:30 4.78019 -74.68937 15726 ft 309 kts 65°
2026-05-05 03:31 4.78928 -74.67062 15382 ft 293 kts 65°
2026-05-05 03:31 4.79798 -74.65269 15064 ft 284 kts 65°
2026-05-05 03:31 4.80665 -74.63480 14755 ft 281 kts 65°
2026-05-05 03:31 4.81503 -74.61748 14453 ft 277 kts 65°
2026-05-05 03:32 4.82344 -74.60009 14138 ft 275 kts 65°
2026-05-05 03:32 4.83173 -74.58295 13846 ft 273 kts 65°
2026-05-05 03:32 4.84004 -74.56581 13564 ft 277 kts 65°
2026-05-05 03:32 4.84864 -74.54811 13270 ft 282 kts 65°
2026-05-05 03:33 4.85716 -74.53051 12965 ft 286 kts 65°
2026-05-05 03:33 4.86586 -74.51257 12846 ft 282 kts 65°
2026-05-05 03:33 4.87436 -74.49504 12804 ft 277 kts 65°
2026-05-05 03:33 4.88279 -74.47767 12824 ft 271 kts 65°
2026-05-05 03:34 4.89095 -74.46079 12822 ft 266 kts 65°
2026-05-05 03:34 4.89891 -74.44441 12856 ft 260 kts 65°
2026-05-05 03:34 4.90647 -74.42802 12864 ft 254 kts 73°
2026-05-05 03:34 4.90648 -74.41104 12918 ft 247 kts 108°
2026-05-05 03:35 4.89755 -74.39645 12941 ft 246 kts 127°
2026-05-05 03:35 4.88732 -74.38274 12959 ft 242 kts 121°
2026-05-05 03:35 4.87773 -74.36891 12959 ft 241 kts 123°
2026-05-05 03:35 4.86754 -74.35503 12874 ft 252 kts 124°
2026-05-05 03:36 4.85686 -74.34060 12633 ft 266 kts 124°
2026-05-05 03:36 4.84560 -74.32555 12354 ft 272 kts 125°
2026-05-05 03:36 4.83384 -74.31008 12030 ft 279 kts 125°
2026-05-05 03:36 4.82194 -74.29433 11723 ft 281 kts 126°
2026-05-05 03:37 4.81008 -74.27895 11353 ft 277 kts 126°
2026-05-05 03:37 4.79858 -74.26377 10990 ft 272 kts 126°
2026-05-05 03:37 4.78716 -74.24865 10634 ft 268 kts 126°
2026-05-05 03:37 4.77599 -74.23404 10291 ft 264 kts 127°
2026-05-05 03:38 4.76525 -74.21995 9986 ft 234 kts 127°
2026-05-05 03:38 4.75591 -74.20770 9658 ft 209 kts 127°
2026-05-05 03:38 4.74770 -74.19692 9433 ft 183 kts 126°
2026-05-05 03:38 4.74029 -74.18720 9182 ft 164 kts 127°
2026-05-05 03:39 4.73344 -74.17842 8946 ft 158 kts 128°
2026-05-05 03:39 4.72683 -74.16969 8800 ft 158 kts 126°
2026-05-05 03:39 4.72005 -74.16082 8608 ft 158 kts 127°
2026-05-05 03:39 4.71335 -74.15200 8395 ft 158 kts 127°
2026-05-05 03:40 4.70704 -74.14370 8364 ft 139 kts 126°
2026-05-05 03:40 4.70260 -74.13777 8365 ft 51 kts 129°
2026-05-05 03:40 4.70133 -74.13676 8363 ft 19 kts 149°
2026-05-05 03:40 4.70024 -74.13625 8362 ft 15 kts 159°
2026-05-05 03:41 4.69962 -74.13599 8362 ft 7 kts 158°
2026-05-05 03:41 4.69913 -74.13590 8363 ft 7 kts 194°
2026-05-05 03:41 4.69889 -74.13623 8364 ft 6 kts 304°
2026-05-05 03:41 4.69921 -74.13663 8364 ft 9 kts 306°
2026-05-05 03:42 4.69971 -74.13728 8365 ft 13 kts 307°
2026-05-05 03:42 4.70030 -74.13806 8365 ft 15 kts 307°
2026-05-05 03:42 4.70105 -74.13905 8367 ft 19 kts 307°
2026-05-05 03:42 4.70191 -74.14019 8368 ft 22 kts 306°
2026-05-05 03:43 4.70242 -74.14087 8367 ft 10 kts 307°
2026-05-05 03:43 4.70286 -74.14146 8366 ft 10 kts 307°
2026-05-05 03:43 4.70332 -74.14205 8365 ft 10 kts 307°
2026-05-05 03:43 4.70364 -74.14249 8365 ft 4 kts 305°
2026-05-05 03:44 4.70384 -74.14275 8365 ft 5 kts 308°
2026-05-05 03:44 4.70413 -74.14313 8365 ft 8 kts 307°
2026-05-05 03:44 4.70460 -74.14376 8365 ft 14 kts 307°
2026-05-05 03:44 4.70532 -74.14470 8364 ft 19 kts 307°
2026-05-05 03:45 4.70613 -74.14576 8364 ft 18 kts 307°
2026-05-05 03:45 4.70687 -74.14675 8364 ft 17 kts 307°
2026-05-05 03:45 4.70758 -74.14769 8364 ft 16 kts 307°
2026-05-05 03:45 4.70825 -74.14857 8364 ft 15 kts 307°
2026-05-05 03:46 4.70887 -74.14940 8364 ft 14 kts 307°
2026-05-05 03:46 4.70947 -74.15019 8364 ft 13 kts 307°
2026-05-05 03:46 4.71004 -74.15093 8363 ft 13 kts 308°
2026-05-05 03:46 4.71050 -74.15148 8362 ft 0 kts 310°
2026-05-05 03:47 4.71057 -74.15157 8362 ft 3 kts 302°
2026-05-05 03:47 4.71087 -74.15205 8361 ft 12 kts 305°
2026-05-05 03:47 4.71146 -74.15282 8358 ft 14 kts 307°
2026-05-05 03:47 4.71180 -74.15331 8357 ft 0 kts 233°
2026-05-05 03:48 4.71139 -74.15324 8357 ft 14 kts 169°
2026-05-05 03:48 4.71090 -74.15326 8358 ft 3 kts 207°
2026-05-05 03:48 4.71074 -74.15336 8358 ft 3 kts 211°
2026-05-05 03:48 4.71052 -74.15334 8359 ft 3 kts 129°
2026-05-05 03:49 4.71046 -74.15321 8359 ft 1 kts 101°
2026-05-05 03:49 4.71042 -74.15302 8360 ft 3 kts 149°
2026-05-05 03:49 4.71033 -74.15307 8360 ft 0 kts 299°